Flag for South Korea

Past Weather in Daegu, South Korea — Yesterday and Last 2 Weeks

Now
59 °F

Clear.


Feels Like: 59 °F
Forecast: 76 / 58 °F
Wind: 1 mph from West

Location: Taegu Ab
Current Time: Sep 26, 2020 at 5:53:41 am
Latest Report: Sep 26, 2020 at 5:00 am
Visibility: 10 mi
Pressure29.95 "Hg
Humidity: 82%
Dew Point: 54 °F
Location of DaeguLocation

Past Weather in Daegu — Graph

°F

Daegu Temperature Yesterday

Maximum temperature yesterday: 79 °F (at 1:00 pm)
Minimum temperature yesterday: 59 °F (at 12:00 am)
Average temperature yesterday: 67 °F

High & Low Weather Summary for the Past Weeks

 TemperatureHumidityPressure
High84 °F (Sep 15, 2:00 pm)94% (Sep 11, 6:37 pm)30.09 "Hg (Sep 11, 6:37 pm)
Low52 °F (Sep 21, 6:00 am)32% (Sep 20, 1:00 pm)29.77 "Hg (Sep 16, 4:00 pm)
Average69 °F74%29.95 "Hg
* Reported Sep 11 4:00 am — Sep 26 4:00 am, Daegu. Weather by CustomWeather, © 2020

Note: Actual official high and low records may vary slightly from our data, if they occured in-between our weather recording intervals... More about our weather records

Daegu Weather History for the Previous 24 Hours

Scroll right to see more
 ConditionsComfort  
Time TempWeatherWind HumidityBarometerVisibility
4:00 am
Sat, Sep 26
59 °FClear.2 mph82%29.95 "Hg10 mi
3:00 am61 °FClear.1 mph77%29.92 "Hg10 mi
2:00 am61 °FClear.1 mph77%29.92 "Hg10 mi
1:00 am59 °FClear.2 mph82%29.92 "Hg10 mi
12:00 am63 °FClear.1 mph73%29.95 "Hg10 mi
11:00 pm
Fri, Sep 25
63 °FClear.2 mph77%29.95 "Hg10 mi
10:00 pm63 °FClear.2 mph77%29.95 "Hg10 mi
9:00 pm64 °FClear.1 mph73%29.92 "Hg10 mi
8:00 pm70 °FClear.5 mph60%29.92 "Hg10 mi
7:00 pm70 °FPassing clouds.5 mph60%29.89 "HgN/A
6:00 pm75 °FPassing clouds.7 mph50%29.86 "HgN/A
5:00 pm77 °FScattered clouds.8 mph47%29.83 "HgN/A
4:00 pm79 °FBroken clouds.7 mph45%29.83 "HgN/A
3:00 pm77 °FScattered clouds.8 mph51%29.83 "HgN/A
2:00 pm77 °FBroken clouds.8 mph51%29.83 "HgN/A
1:00 pm79 °FPartly sunny.3 mph54%29.86 "HgN/A
12:00 pm73 °FPartly sunny.3 mph65%29.86 "HgN/A
11:00 am73 °FPartly sunny.1 mph61%29.89 "HgN/A
10:00 am70 °FPartly sunny.1 mph64%29.86 "HgN/A
9:00 am68 °FBroken clouds.1 mph69%29.86 "HgN/A
8:28 am66 °FBroken clouds.3 mph78%29.86 "HgN/A
8:00 am63 °FBroken clouds.1 mph83%29.86 "HgN/A
7:00 am59 °FPartly sunny.1 mph94%29.86 "HgN/A
6:00 am59 °FPassing clouds.1 mph88%29.86 "HgN/A
5:00 am59 °FPassing clouds.5 mph88%29.86 "HgN/A
Weather by CustomWeather, © 2020

See weather overview